Location: Newark
(23.5328°S, 46.7919°W)
Time: 07:36:29
(UTC+00:00)

Envisat - Visible Passes

Search period start: 06 March 2021 00:00
Search period end: 16 March 2021 00:00
Orbit: 764 x 766 km, 98.1° (Epoch: 05 March)

Date Brightness Start Highest point End Pass type
(mag) Time Alt. Az. Time Alt. Az. Time Alt. Az.
06 Mar 6.3 06:53:20 10° E 06:54:48 11° ESE 06:56:16 10° SE visible
06 Mar 3.1 08:28:17 10° N 08:33:15 55° W 08:38:16 10° SSW visible
07 Mar 3.7 07:51:32 10° NNE 07:56:30 56° ESE 08:01:31 10° S visible
07 Mar 6.2 21:50:49 10° SW 21:53:31 14° WSW 21:56:11 10° WNW visible
08 Mar 5.5 07:16:03 10° ENE 07:19:55 22° ESE 07:23:47 10° SSE visible
09 Mar 2.9 08:16:45 10° N 08:21:49 74° WNW 08:26:57 10° SSW visible
10 Mar 4.3 07:40:22 10° NE 07:45:08 42° ESE 07:49:56 10° S visible
11 Mar 5.8 07:05:26 10° ENE 07:08:35 17° ESE 07:11:46 10° SSE visible
12 Mar 3.1 08:05:20 10° NNE 08:10:25 83° ESE 08:15:34 10° S visible
13 Mar 4.8 07:29:17 10° NE 07:33:46 32° ESE 07:38:16 10° SSE visible
14 Mar 6.2 06:55:13 10° E 06:57:17 12° ESE 06:59:22 10° SE visible
14 Mar 3.2 08:30:53 10° N 08:35:47 49° W 08:40:45 10° SSW visible
15 Mar 3.5 07:54:01 10° NNE 07:59:01 62° ESE 08:04:05 10° S visible
15 Mar 6.3 21:53:43 10° SW 21:56:00 13° WSW 21:58:16 10° W visible
